Home > Weather > Paphos > Past weeks

Flag for Cyprus Past Weather in Paphos, Cyprus — Yesterday and Last 2 Weeks

Now
84 °F

Passing clouds.


Feels Like: 92 °F
Forecast: 76 / 89 °F
Wind: 3 mph from Southwest

Location: Paphos Airport

Current Time: Jun 25, 2016 at 9:57:47 AM

Latest Report: Jun 25, 2016 at 9:00 AM


Visibility: N/A

Pressure: 29.68 "Hg

Humidity: 74%

Dew Point: 75 °F

Location of PaphosLocation

Past Weather in Paphos — Graph

°F

Paphos Temperature Yesterday

Maximum temperature yesterday: 86 °F (at 1:00 PM)
Minimum temperature yesterday: 75 °F (at 2:00 AM)
Average temperature yesterday: 81 °F

High & Low Weather Summary for the Past Weeks

 TemperatureHumidityPressure
High100 °F (Jun 17, 11:30 AM)100% (Jun 23, 9:30 PM)29.98 "Hg (Jun 23, 9:30 PM)
Low59 °F (Jun 12, 5:30 AM)40% (Jun 17, 11:30 AM)29.65 "Hg (Jun 24, 5:00 AM)
Average78 °F69%29.79 "Hg
* Reported Jun 10 8:00 AM — Jun 25 8:30 AM, Paphos, Weather by CustomWeather, © 2016

Note: Actual official high and low records may vary slightly from our data, if they occured in-between our weather recording intervals... More about our weather records

Advertising

Paphos Weather History for the Previous 24 Hours

Scroll right to see more
 ConditionsComfort  
Time TempWeatherWind HumidityBarometerVisibility
8:30 AM
Sat, Jun 25
84 °FSunny.2 mph66%29.68 "Hg10 mi
8:00 AM82 °FPassing clouds.3 mph66%29.68 "HgN/A
7:30 AM84 °FSunny.3 mph55%29.68 "Hg10 mi
7:00 AM75 °FSunny.1 mph69%29.65 "Hg10 mi
6:00 AM72 °FClear.1 mph73%29.65 "Hg10 mi
5:30 AM72 °FMild.3 mph73%29.65 "HgN/A
5:00 AM72 °FMild.2 mph78%29.65 "HgN/A
4:30 AM72 °FMild.3 mph78%29.65 "HgN/A
4:00 AM75 °FMild.2 mph69%29.65 "HgN/A
3:30 AM73 °FMild.3 mph78%29.65 "HgN/A
3:00 AM73 °FClear.2 mph83%29.65 "Hg10 mi
2:30 AM75 °FClear.5 mph89%29.65 "Hg10 mi
2:00 AM77 °FClear.5 mph94%29.65 "Hg10 mi
1:30 AM77 °FClear.8 mph100%29.65 "Hg10 mi
1:00 AM79 °FClear.7 mph94%29.65 "Hg10 mi
12:30 AM81 °FPassing clouds.6 mph94%29.65 "HgN/A
12:00 AM81 °FPassing clouds.7 mph94%29.65 "HgN/A
11:30 PM
Fri, Jun 24
81 °FClear.7 mph94%29.65 "Hg10 mi
11:00 PM79 °FClear.8 mph100%29.65 "Hg10 mi
10:30 PM79 °FClear.9 mph100%29.65 "Hg10 mi
10:00 PM81 °FClear.10 mph94%29.65 "Hg10 mi
9:30 PM81 °FClear.9 mph94%29.65 "Hg10 mi
9:00 PM81 °FSunny.7 mph94%29.65 "Hg10 mi
8:30 PM81 °FSunny.12 mph94%29.65 "Hg10 mi
8:00 PM81 °FSunny.14 mph94%29.65 "Hg10 mi
7:30 PM81 °FSunny.12 mph94%29.65 "Hg10 mi
7:00 PM82 °FSunny.13 mph89%29.65 "Hg10 mi
6:30 PM82 °FPassing clouds.12 mph89%29.65 "HgN/A
6:00 PM84 °FPassing clouds.12 mph84%29.65 "HgN/A
5:30 PM84 °FPassing clouds.12 mph84%29.65 "HgN/A
5:00 PM84 °FPassing clouds.12 mph84%29.65 "HgN/A
4:30 PM86 °FPassing clouds.12 mph79%29.65 "HgN/A
4:00 PM86 °FPassing clouds.12 mph79%29.65 "HgN/A
3:30 PM84 °FPassing clouds.13 mph84%29.65 "HgN/A
3:00 PM86 °FPassing clouds.12 mph79%29.65 "HgN/A
2:30 PM86 °FPassing clouds.13 mph79%29.65 "HgN/A
2:00 PM86 °FPassing clouds.12 mph79%29.65 "HgN/A
1:30 PM86 °FPassing clouds.12 mph79%29.68 "HgN/A
1:00 PM86 °FPassing clouds.12 mph79%29.68 "HgN/A
12:30 PM84 °FPassing clouds.13 mph84%29.68 "HgN/A
12:00 PM84 °FPassing clouds.12 mph84%29.68 "HgN/A
11:30 AM84 °FPassing clouds.12 mph84%29.68 "HgN/A
11:00 AM84 °FPassing clouds.12 mph84%29.68 "HgN/A
10:30 AM82 °FPassing clouds.12 mph89%29.68 "HgN/A
10:00 AM84 °FPassing clouds.12 mph84%29.68 "HgN/A
9:30 AM84 °FPassing clouds.12 mph84%29.68 "HgN/A
9:00 AM82 °FSunny.10 mph84%29.68 "Hg10 mi
Weather by CustomWeather, © 2016

See weather overviewHow to use our weather pages